Scio, NY

1:34 PM EST on January 17, 2017 (GMT -0500)
Wellsville Municipal-Tarantine

Weather History for KELZ - October, 2013

Change the Weather History Date:

Sunday, October 6, 2013

  Actual Average (KDSV) Record (KDSV)
Temperature  
Mean Temperature 70 °F -  
Max Temperature 80 °F 65 °F 90 °F (1951)
Min Temperature 62 °F 41 °F 23 °F (1965)
Cooling Degree Days 6    
Growing Degree Days 20 (Base 50)    
Moisture  
Dew Point 62 °F    
Average Humidity 82    
Maximum Humidity 94    
Minimum Humidity 54    
Precipitation  
Precipitation 0.55 in - - ()
Sea Level Pressure  
Sea Level Pressure 29.97 in    
Wind  
Wind Speed 5 mph (South)    
Max Wind Speed 17 mph    
Max Gust Speed 30 mph    
Visibility 6 miles    
Events Fog , Rain    
Averages and records for this station are not official NWS values.
T = Trace of Precipitation, MM = Missing Value Source: NWS Daily Summary

Daily Weather History Graph

Daily Weather History Graph

Search for Another Location

Airport or City:

Trip Planner

Search our weather history database for the weather conditions in past years. The results will help you decide how hot, cold, wet, or windy it might be!

Date:

Astronomy

Oct. 06, 2013 Rise Set
Actual Time 7:14 AM EDT 6:44 PM EDT
Civil Twilight 6:46 AM EDT 7:12 PM EDT
Nautical Twilight 6:14 AM EDT 7:44 PM EDT
Astronomical Twilight 5:41 AM EDT 8:17 PM EDT
Moon 8:59 AM EDT (10/6) 7:39 PM EDT (10/6)
Length of Visible Light 12h 25m
Length of Day
11h 29m
Waxing Crescent, 3% of the Moon is Illuminated
Oct 6
Waxing Crescent
Oct 11
First Quarter
Oct 18
Full
Oct 26
Last Quarter
Nov 3
New

Hourly Weather History & Observations

Time (EDT) Temp. Dew Point Humidity Pressure Visibility Wind Dir Wind Speed Gust Speed Precip Events Conditions
12:09 AM 62.6 °F 60.8 °F 94% 30.06 in 4.0 mi ESE 3.5 mph - 0.01 in   Overcast
12:56 AM 64.0 °F 62.1 °F 93% 30.03 in 5.0 mi South 5.8 mph - 0.02 in Rain Light Rain
1:56 AM 64.9 °F 62.1 °F 90% 30.01 in 10.0 mi South 3.5 mph - 0.00 in   Scattered Clouds
2:56 AM 66.0 °F 63.0 °F 90% 30.00 in 10.0 mi SSW 4.6 mph - 0.01 in   Overcast
3:56 AM 66.0 °F 62.1 °F 87% 29.99 in 10.0 mi South 4.6 mph - 0.00 in   Mostly Cloudy
4:56 AM 66.0 °F 62.1 °F 87% 29.99 in 10.0 mi South 5.8 mph - N/A   Scattered Clouds
5:56 AM 64.9 °F 62.1 °F 90% 30.00 in 8.0 mi Calm Calm - 0.01 in   Overcast
6:49 AM 66.2 °F 62.6 °F 88% 30.02 in 7.0 mi West 6.9 mph - 0.00 in Rain Light Rain
6:56 AM 64.9 °F 62.1 °F 90% 30.00 in 3.0 mi SW 5.8 mph - 0.00 in Rain Heavy Rain
7:04 AM 64.4 °F 62.6 °F 94% 30.02 in 2.0 mi SSW 6.9 mph - 0.00 in Rain Heavy Rain
7:16 AM 66.2 °F 62.6 °F 88% 30.01 in 1.0 mi South 6.9 mph - N/A Rain Heavy Rain
7:22 AM 64.4 °F 62.6 °F 94% 30.01 in 4.0 mi South 6.9 mph - N/A Rain Light Rain
7:56 AM 64.9 °F 63.0 °F 93% 29.99 in 3.0 mi SE 4.6 mph - N/A   Overcast
8:04 AM 64.4 °F 62.6 °F 94% 30.02 in 2.5 mi SSE 4.6 mph - 0.02 in   Overcast
8:16 AM 64.4 °F 62.6 °F 94% 30.02 in 4.0 mi Calm Calm - 0.04 in   Overcast
8:30 AM 64.4 °F 62.6 °F 94% 30.02 in 2.0 mi SE 4.6 mph - 0.07 in Rain Light Rain
8:46 AM 64.4 °F 62.6 °F 94% 30.02 in 1.5 mi Calm Calm - 0.11 in Rain Rain
8:56 AM 64.9 °F 63.0 °F 93% 30.00 in 2.5 mi Calm Calm - 0.13 in Rain Light Rain
9:10 AM 66.2 °F 62.6 °F 88% 30.02 in 3.0 mi Calm Calm - 0.03 in   Overcast
9:23 AM 66.2 °F 62.6 °F 88% 30.03 in 1.8 mi West 3.5 mph - 0.05 in Rain Light Rain
9:38 AM 66.2 °F 64.4 °F 94% 30.02 in 0.2 mi ESE 3.5 mph - 0.09 in Fog , Rain Light Rain
9:56 AM 66.0 °F 64.0 °F 93% 29.99 in 0.8 mi ESE 4.6 mph - 0.12 in Rain Light Rain
10:00 AM 66.2 °F 64.4 °F 94% 30.01 in 2.5 mi SE 3.5 mph - 0.01 in Rain Light Rain
10:07 AM 66.2 °F 64.4 °F 94% 30.01 in 4.0 mi SE 3.5 mph - 0.03 in   Overcast
10:11 AM 66.2 °F 64.4 °F 94% 30.01 in 2.5 mi ESE 3.5 mph - 0.03 in   Overcast
10:29 AM 68.0 °F 64.4 °F 88% 30.01 in 5.0 mi SSE 6.9 mph - 0.07 in   Mostly Cloudy
10:56 AM 70.0 °F 64.9 °F 84% 29.98 in 10.0 mi South 5.8 mph - 0.12 in   Clear
11:56 AM 73.9 °F 64.0 °F 71% 29.96 in 10.0 mi SSW 11.5 mph - 0.10 in   Clear
12:56 PM 77.0 °F 63.0 °F 62% 29.94 in 10.0 mi SW 15.0 mph 20.7 mph 0.03 in   Partly Cloudy
1:56 PM 78.1 °F 62.1 °F 58% 29.91 in 10.0 mi SW 8.1 mph 18.4 mph N/A   Scattered Clouds
2:56 PM 79.0 °F 61.0 °F 54% 29.89 in 10.0 mi South 9.2 mph - N/A   Mostly Cloudy
3:56 PM 78.1 °F 61.0 °F 56% 29.88 in 10.0 mi South 10.4 mph 19.6 mph N/A   Scattered Clouds
4:56 PM 75.9 °F 63.0 °F 64% 29.86 in 10.0 mi South 5.8 mph - 0.01 in   Partly Cloudy
5:07 PM 77.0 °F 62.6 °F 61% 29.90 in 10.0 mi Variable 5.8 mph - N/A   Scattered Clouds
5:56 PM 77.0 °F 60.1 °F 56% 29.86 in 10.0 mi South 6.9 mph - N/A   Scattered Clouds
6:56 PM 75.0 °F 59.0 °F 57% 29.86 in 10.0 mi SSE 9.2 mph - N/A   Scattered Clouds
7:56 PM 73.0 °F 60.1 °F 64% 29.86 in 10.0 mi SSE 15.0 mph 23.0 mph N/A   Partly Cloudy
8:56 PM 72.0 °F 62.1 °F 71% 29.86 in 10.0 mi SSE 11.5 mph 27.6 mph N/A   Clear
9:56 PM 71.1 °F 62.1 °F 73% 29.85 in 10.0 mi SSE 17.3 mph 27.6 mph N/A   Clear
10:56 PM 70.0 °F 62.1 °F 76% 29.84 in 10.0 mi SSE 15.0 mph 29.9 mph N/A   Clear
11:56 PM 69.1 °F 61.0 °F 75% 29.83 in 10.0 mi SSE 17.3 mph 23.0 mph N/A   Partly Cloudy